Location: Hains Lake
(37.8540°N, 99.8578°W)
Time: 09:29:56
(UTC+00:00)

Tiros 1 despin weight - Pass Details

Date: 28 April 2021
Orbit: 593 x 642 km, 48.2° (Epoch: 07 May)

Event Time Altitude Azimuth Distance (km) Brightness Sun altitude
Rises 08:56:01 0° 248° (WSW) 2,932 - -28.5°
Reaches altitude 10° 08:58:23 10° 253° (WSW) 2,022 - -28.2°
Maximum altitude 09:02:58 56° 332° (NNW) 758 - -27.6°
Exits shadow 09:03:34 51° 2° (N) 795 ? -27.6°
Drops below altitude 10° 09:07:31 10° 50° (NE) 2,007 ? -27.0°
Sets 09:09:52 0° 55° (NE) 2,908 ? -26.7°
